Weather History for Rock Hill, SC

Change the Weather History Date:

Friday, November 15, 2013

  Actual Average Record
Temperature  
Mean Temperature 44 °F -  
Max Temperature 61 °F 62 °F 83 °F (1955)
Min Temperature 28 °F 39 °F 18 °F (1969)
Degree Days  
Heating Degree Days 20    
Moisture  
Dew Point 39 °F    
Average Humidity 73    
Maximum Humidity 97    
Minimum Humidity 45    
Precipitation  
Precipitation 0.07 in - - ()
Sea Level Pressure  
Sea Level Pressure 30.28 in    
Wind  
Wind Speed 1 mph (NE)    
Max Wind Speed 6 mph    
Max Gust Speed -    
Visibility 10 miles    
Events Rain    
Averages and records for this station are not official NWS values.
T = Trace of Precipitation, MM = Missing Value Source: NWS Daily Summary

Daily Weather History Graph

Daily Weather History Graph

Search for Another Location

Airport:

Trip Planner

Search our weather history database for the weather conditions in past years. The results will help you decide how hot, cold, wet, or windy it might be!

Date:

Astronomy

Nov. 15, 2013 Rise Set
Actual Time 6:58 AM EST 5:18 PM EST
Civil Twilight 6:31 AM EST 5:45 PM EST
Nautical Twilight 6:01 AM EST 6:15 PM EST
Astronomical Twilight 5:31 AM EST 6:46 PM EST
Moon 4:11 PM EST (11/15) 4:57 AM EST (11/15)
Length of Visible Light 11h 13m
Length of Day
10h 19m
Waxing Gibbous, 96% of the Moon is Illuminated
Nov 15
Waxing Gibbous
Nov 17
Full
Nov 25
Last Quarter
Dec 2
New
Dec 9
First Quarter

Hourly Weather History & Observations

Time (EST) Temp. Windchill Dew Point Humidity Pressure Visibility Wind Dir Wind Speed Gust Speed Precip Events Conditions
12:54 AM 30.9 °F - 23.0 °F 72% 30.35 in 10.0 mi Calm Calm - N/A   Clear
1:54 AM 30.0 °F - 24.1 °F 79% 30.33 in 10.0 mi Calm Calm - N/A   Clear
2:54 AM 28.9 °F - 24.1 °F 82% 30.35 in 10.0 mi Calm Calm - N/A   Clear
3:54 AM 30.9 °F - 26.1 °F 82% 30.33 in 10.0 mi Calm Calm - N/A   Clear
4:54 AM 32.0 °F - 27.0 °F 82% 30.33 in 10.0 mi Calm Calm - N/A   Clear
5:54 AM 34.0 °F - 28.0 °F 79% 30.34 in 10.0 mi Calm Calm - N/A   Clear
6:54 AM 34.0 °F - 28.9 °F 82% 30.35 in 10.0 mi Calm Calm - N/A   Clear
7:54 AM 37.9 °F - 30.0 °F 73% 30.35 in 10.0 mi Calm Calm - N/A   Clear
8:23 AM 43.0 °F - 34.0 °F 71% 30.33 in 10.0 mi Calm Calm - N/A   Mostly Cloudy
8:54 AM 44.1 °F 42.5 °F 34.0 °F 68% 30.38 in 10.0 mi NNE 3.5 mph - N/A   Overcast
9:45 AM 48.0 °F - 34.0 °F 58% 30.35 in 10.0 mi Calm Calm - N/A   Mostly Cloudy
9:54 AM 48.9 °F - 35.1 °F 59% 30.37 in 10.0 mi Calm Calm - N/A   Mostly Cloudy
10:54 AM 54.0 °F - 36.0 °F 51% 30.35 in 10.0 mi SSW 3.5 mph - N/A   Overcast
11:12 AM 54.0 °F - 36.0 °F 51% 30.33 in 10.0 mi SE 4.6 mph - N/A   Mostly Cloudy
11:54 AM 57.0 °F - 36.0 °F 45% 30.32 in 10.0 mi Variable 3.5 mph - N/A   Clear
12:54 PM 57.9 °F - 37.9 °F 47% 30.28 in 10.0 mi Variable 3.5 mph - N/A   Mostly Cloudy
1:41 PM 59.0 °F - 39.0 °F 48% 30.24 in 10.0 mi ESE 4.6 mph - N/A   Scattered Clouds
1:54 PM 59.0 °F - 39.9 °F 49% 30.23 in 10.0 mi Variable 4.6 mph - N/A   Clear
2:54 PM 60.1 °F - 43.0 °F 53% 30.22 in 10.0 mi Calm Calm - N/A   Clear
3:54 PM 61.0 °F - 44.1 °F 54% 30.21 in 10.0 mi Calm Calm - N/A   Overcast
4:54 PM 57.9 °F - 44.1 °F 60% 30.21 in 10.0 mi NNE 3.5 mph - N/A   Overcast
5:54 PM 55.0 °F - 44.1 °F 67% 30.22 in 10.0 mi Calm Calm - N/A   Overcast
6:54 PM 55.9 °F - 46.0 °F 69% 30.21 in 10.0 mi ESE 3.5 mph - N/A   Overcast
7:54 PM 54.0 °F - 46.9 °F 77% 30.21 in 10.0 mi Calm Calm - 0.00 in Rain Light Rain
8:54 PM 54.0 °F - 51.1 °F 90% 30.23 in 10.0 mi Calm Calm - 0.02 in Rain Light Rain
9:35 PM 52.0 °F - 50.0 °F 93% 30.23 in 10.0 mi NNE 5.8 mph - 0.03 in Rain Light Rain
9:54 PM 51.1 °F - 50.0 °F 96% 30.24 in 10.0 mi North 5.8 mph - 0.04 in Rain Light Rain
10:04 PM 51.1 °F - 50.0 °F 96% 30.25 in 10.0 mi North 4.6 mph - 0.00 in Rain Light Rain
10:32 PM 51.1 °F - 50.0 °F 96% 30.23 in 10.0 mi ENE 3.5 mph - 0.01 in Rain Light Rain
10:54 PM 50.0 °F - 48.9 °F 96% 30.23 in 10.0 mi Calm Calm - 0.01 in   Overcast
11:15 PM 48.9 °F - 48.0 °F 97% 30.23 in 10.0 mi Calm Calm - N/A   Overcast
11:30 PM 48.0 °F - 46.9 °F 96% 30.23 in 10.0 mi North 4.6 mph - N/A   Overcast
11:54 PM 50.0 °F - 48.9 °F 96% 30.22 in 10.0 mi Calm Calm - N/A   Overcast